Time,TemperatureF,DewpointF,PressureIn,WindDirection,WindDirectionDegrees,WindSpeedMPH,WindSpeedGustMPH,Humidity,HourlyPrecipIn,Conditions,Clouds,dailyrainin,SoftwareType,DateUTC
2013-03-01 00:02:00,31.0,31.0,29.49,NNW,348,2.0,6.0,100,0.00,,,0.00,,2013-03-01 05:02:00,
2013-03-01 00:11:00,31.0,31.0,29.49,NNW,348,2.0,6.0,100,0.00,,,0.00,,2013-03-01 05:11:00,
2013-03-01 00:22:00,31.0,31.0,29.49,North,9,1.0,2.0,100,0.00,,,0.00,,2013-03-01 05:22:00,
2013-03-01 00:32:00,31.0,31.0,29.49,North,8,2.0,3.0,100,0.00,,,0.00,,2013-03-01 05:32:00,
2013-03-01 00:42:00,31.0,31.0,29.49,North,8,2.0,3.0,100,0.00,,,0.00,,2013-03-01 05:42:00,
2013-03-01 00:53:00,31.0,31.0,29.52,NE,39,1.0,5.0,100,0.00,,,0.00,,2013-03-01 05:53:00,
2013-03-01 01:02:00,31.0,31.0,29.52,NNW,348,2.0,3.0,100,0.00,,,0.00,,2013-03-01 06:02:00,
2013-03-01 01:12:00,31.0,31.0,29.49,North,358,2.0,5.0,100,0.00,,,0.00,,2013-03-01 06:12:00,
2013-03-01 01:22:00,31.0,31.0,29.49,North,358,2.0,5.0,100,0.00,,,0.00,,2013-03-01 06:22:00,
2013-03-01 01:32:00,31.0,31.0,29.49,North,359,3.0,6.0,99,0.00,,,0.00,,2013-03-01 06:32:00,
2013-03-01 01:42:00,31.0,31.0,29.49,North,359,3.0,6.0,99,0.00,,,0.00,,2013-03-01 06:42:00,
2013-03-01 01:53:00,30.0,30.0,29.49,NNE,19,1.0,3.0,99,0.00,,,0.00,,2013-03-01 06:53:00,
2013-03-01 02:02:00,30.0,30.0,29.49,North,349,1.0,3.0,99,0.00,,,0.00,,2013-03-01 07:02:00,
2013-03-01 02:11:00,30.0,30.0,29.49,North,349,1.0,3.0,99,0.00,,,0.00,,2013-03-01 07:11:00,
2013-03-01 02:22:00,30.0,30.0,29.49,NNW,328,1.0,2.0,99,0.00,,,0.00,,2013-03-01 07:22:00,
2013-03-01 02:32:00,30.0,30.0,29.49,North,1,2.0,5.0,99,0.00,,,0.00,,2013-03-01 07:32:00,
2013-03-01 02:42:00,30.0,30.0,29.49,North,1,2.0,5.0,99,0.00,,,0.00,,2013-03-01 07:42:00,
2013-03-01 02:52:00,31.0,31.0,29.49,NNE,17,2.0,5.0,98,0.00,,,0.00,,2013-03-01 07:52:00,
2013-03-01 03:02:00,31.0,30.0,29.49,NNE,13,2.0,3.0,97,0.00,,,0.00,,2013-03-01 08:02:00,
2013-03-01 03:12:00,31.0,30.0,29.49,NNE,13,2.0,3.0,97,0.00,,,0.00,,2013-03-01 08:12:00,
2013-03-01 03:22:00,31.0,30.0,29.49,ENE,62,1.0,3.0,97,0.00,,,0.00,,2013-03-01 08:22:00,
2013-03-01 03:32:00,31.0,30.0,29.49,North,355,1.0,3.0,97,0.00,,,0.00,,2013-03-01 08:32:00,
2013-03-01 03:42:00,31.0,30.0,29.49,North,355,1.0,3.0,97,0.00,,,0.00,,2013-03-01 08:42:00,
2013-03-01 03:53:00,31.0,30.0,29.49,NNE,12,1.0,3.0,97,0.00,,,0.00,,2013-03-01 08:53:00,
2013-03-01 04:02:00,31.0,30.0,29.49,NNE,21,2.0,3.0,97,0.00,,,0.00,,2013-03-01 09:02:00,
2013-03-01 04:12:00,31.0,30.0,29.49,NNE,21,2.0,3.0,97,0.00,,,0.00,,2013-03-01 09:12:00,
2013-03-01 04:22:00,30.0,29.0,29.52,ESE,105,1.0,2.0,97,0.00,,,0.00,,2013-03-01 09:22:00,
2013-03-01 04:32:00,30.0,29.0,29.52,NNW,343,2.0,5.0,97,0.00,,,0.00,,2013-03-01 09:32:00,
2013-03-01 04:42:00,30.0,29.0,29.52,NNW,343,2.0,5.0,97,0.00,,,0.00,,2013-03-01 09:42:00,
2013-03-01 04:52:00,29.0,28.0,29.52,North,0,2.0,3.0,97,0.00,,,0.00,,2013-03-01 09:52:00,
2013-03-01 05:02:00,30.0,29.0,29.52,NNW,345,1.0,3.0,97,0.00,,,0.00,,2013-03-01 10:02:00,
2013-03-01 05:11:00,30.0,29.0,29.52,NNW,345,1.0,3.0,97,0.00,,,0.00,,2013-03-01 10:11:00,
2013-03-01 05:22:00,30.0,29.0,29.52,NNW,342,2.0,5.0,96,0.00,,,0.00,,2013-03-01 10:22:00,
2013-03-01 05:32:00,30.0,29.0,29.52,NNE,19,1.0,3.0,96,0.00,,,0.00,,2013-03-01 10:32:00,
2013-03-01 05:42:00,30.0,29.0,29.52,NNE,19,1.0,3.0,96,0.00,,,0.00,,2013-03-01 10:42:00,
2013-03-01 05:53:00,31.0,30.0,29.52,NNE,22,2.0,3.0,95,0.00,,,0.00,,2013-03-01 10:53:00,
2013-03-01 06:01:00,31.0,30.0,29.52,NW,320,1.0,3.0,95,0.00,,,0.00,,2013-03-01 11:01:00,
2013-03-01 06:11:00,31.0,30.0,29.52,NW,320,1.0,3.0,95,0.00,,,0.00,,2013-03-01 11:11:00,
2013-03-01 06:22:00,30.0,28.0,29.52,NNE,15,1.0,3.0,94,0.00,,,0.00,,2013-03-01 11:22:00,
2013-03-01 06:32:00,29.0,28.0,29.52,NNW,346,2.0,3.0,95,0.00,,,0.00,,2013-03-01 11:32:00,
2013-03-01 06:42:00,29.0,28.0,29.52,NNW,346,2.0,3.0,95,0.00,,,0.00,,2013-03-01 11:42:00,
2013-03-01 06:52:00,29.0,28.0,29.54,NE,54,2.0,3.0,95,0.00,,,0.00,,2013-03-01 11:52:00,
2013-03-01 07:02:00,29.0,28.0,29.54,NE,37,1.0,3.0,95,0.00,,,0.00,,2013-03-01 12:02:00,
2013-03-01 07:11:00,29.0,28.0,29.54,NE,37,1.0,3.0,95,0.00,,,0.00,,2013-03-01 12:11:00,
2013-03-01 07:21:00,30.0,28.0,29.52,NW,322,2.0,6.0,94,0.00,,,0.00,,2013-03-01 12:21:00,
2013-03-01 07:32:00,31.0,29.0,29.52,NE,49,1.0,5.0,94,0.00,,,0.00,,2013-03-01 12:32:00,
2013-03-01 07:42:00,31.0,29.0,29.52,NE,49,1.0,5.0,94,0.00,,,0.00,,2013-03-01 12:42:00,
2013-03-01 07:52:00,32.0,30.0,29.54,NNE,15,1.0,6.0,91,0.00,,,0.00,,2013-03-01 12:52:00,
2013-03-01 08:01:00,32.0,29.0,29.54,ENE,60,2.0,8.0,89,0.00,,,0.00,,2013-03-01 13:01:00,
2013-03-01 08:11:00,34.0,30.0,29.54,NNW,348,3.0,6.0,84,0.00,,,0.00,,2013-03-01 13:11:00,
2013-03-01 08:22:00,34.0,30.0,29.54,NNW,348,3.0,6.0,84,0.00,,,0.00,,2013-03-01 13:22:00,
2013-03-01 08:32:00,34.0,29.0,29.54,NNE,15,3.0,6.0,81,0.00,,,0.00,,2013-03-01 13:32:00,
2013-03-01 08:42:00,34.0,29.0,29.54,NNE,15,3.0,6.0,81,0.00,,,0.00,,2013-03-01 13:42:00,
2013-03-01 08:52:00,35.0,30.0,29.54,NE,35,2.0,5.0,81,0.00,,,0.00,,2013-03-01 13:52:00,
2013-03-01 09:01:00,35.0,29.0,29.54,NE,34,3.0,7.0,78,0.00,,,0.00,,2013-03-01 14:01:00,
2013-03-01 09:11:00,35.0,29.0,29.54,NE,34,3.0,7.0,78,0.00,,,0.00,,2013-03-01 14:11:00,
2013-03-01 09:21:00,35.0,29.0,29.57,NNE,17,3.0,7.0,77,0.00,,,0.00,,2013-03-01 14:21:00,
2013-03-01 09:32:00,35.0,29.0,29.57,NNW,346,3.0,6.0,77,0.00,,,0.00,,2013-03-01 14:32:00,
2013-03-01 09:42:00,35.0,29.0,29.57,NNW,346,3.0,6.0,77,0.00,,,0.00,,2013-03-01 14:42:00,
2013-03-01 09:52:00,35.0,29.0,29.57,North,3,3.0,6.0,78,0.00,,,0.00,,2013-03-01 14:52:00,
2013-03-01 10:02:00,35.0,29.0,29.57,NNE,12,2.0,7.0,78,0.00,,,0.00,,2013-03-01 15:02:00,
2013-03-01 10:11:00,35.0,28.0,29.57,NNW,333,3.0,6.0,76,0.00,,,0.00,,2013-03-01 15:11:00,
2013-03-01 10:21:00,35.0,28.0,29.57,NNW,333,3.0,6.0,76,0.00,,,0.00,,2013-03-01 15:21:00,
2013-03-01 10:32:00,35.0,28.0,29.57,NNE,17,4.0,8.0,75,0.00,,,0.00,,2013-03-01 15:32:00,
2013-03-01 10:42:00,35.0,28.0,29.57,NNE,17,4.0,8.0,75,0.00,,,0.00,,2013-03-01 15:42:00,
2013-03-01 10:52:00,35.0,28.0,29.57,NNE,29,3.0,7.0,75,0.00,,,0.00,,2013-03-01 15:52:00,
2013-03-01 11:01:00,35.0,28.0,29.57,NNW,346,2.0,5.0,76,0.00,,,0.00,,2013-03-01 16:01:00,
2013-03-01 11:11:00,35.0,28.0,29.57,NNW,346,2.0,5.0,76,0.00,,,0.00,,2013-03-01 16:11:00,
2013-03-01 11:21:00,36.0,29.0,29.57,North,2,2.0,6.0,76,0.00,,,0.00,,2013-03-01 16:21:00,
2013-03-01 11:32:00,36.0,29.0,29.57,NNE,22,2.0,5.0,75,0.00,,,0.00,,2013-03-01 16:32:00,
2013-03-01 11:42:00,36.0,29.0,29.57,NNE,22,2.0,5.0,75,0.00,,,0.00,,2013-03-01 16:42:00,
2013-03-01 11:52:00,36.0,29.0,29.57,North,349,2.0,5.0,75,0.00,,,0.00,,2013-03-01 16:52:00,
2013-03-01 12:01:00,35.0,28.0,29.57,East,83,3.0,5.0,75,0.00,,,0.00,,2013-03-01 17:01:00,
2013-03-01 12:11:00,35.0,29.0,29.57,NNE,28,2.0,6.0,77,0.00,,,0.00,,2013-03-01 17:11:00,
2013-03-01 12:21:00,35.0,29.0,29.57,NNE,28,2.0,6.0,77,0.00,,,0.00,,2013-03-01 17:21:00,
2013-03-01 12:32:00,36.0,29.0,29.57,NNE,19,2.0,6.0,76,0.00,,,0.00,,2013-03-01 17:32:00,
2013-03-01 12:42:00,36.0,29.0,29.60,ENE,64,2.0,6.0,75,0.00,,,0.00,,2013-03-01 17:42:00,
2013-03-01 12:52:00,36.0,29.0,29.60,ENE,64,2.0,6.0,75,0.00,,,0.00,,2013-03-01 17:52:00,
2013-03-01 13:01:00,36.0,28.0,29.60,North,351,3.0,6.0,73,0.00,,,0.00,,2013-03-01 18:01:00,
2013-03-01 13:12:00,36.0,28.0,29.60,North,351,3.0,6.0,73,0.00,,,0.00,,2013-03-01 18:12:00,
2013-03-01 13:22:00,37.0,29.0,29.57,North,358,2.0,5.0,72,0.00,,,0.00,,2013-03-01 18:22:00,
2013-03-01 13:32:00,36.0,28.0,29.57,NNE,22,2.0,5.0,72,0.00,,,0.00,,2013-03-01 18:32:00,
2013-03-01 13:42:00,38.0,30.0,29.57,NNW,342,2.0,5.0,72,0.00,,,0.00,,2013-03-01 18:42:00,
2013-03-01 13:52:00,38.0,30.0,29.57,NNW,342,2.0,5.0,72,0.00,,,0.00,,2013-03-01 18:52:00,
2013-03-01 14:01:00,38.0,29.0,29.57,North,357,2.0,5.0,70,0.00,,,0.00,,2013-03-01 19:01:00,
2013-03-01 14:11:00,38.0,29.0,29.57,North,357,2.0,5.0,70,0.00,,,0.00,,2013-03-01 19:11:00,
2013-03-01 14:21:00,37.0,28.0,29.57,North,11,3.0,5.0,70,0.00,,,0.00,,2013-03-01 19:21:00,
2013-03-01 14:32:00,37.0,28.0,29.57,NNW,348,2.0,5.0,71,0.00,,,0.00,,2013-03-01 19:32:00,
2013-03-01 14:42:00,37.0,28.0,29.57,NNW,348,2.0,5.0,71,0.00,,,0.00,,2013-03-01 19:42:00,
2013-03-01 14:52:00,37.0,28.0,29.57,NNE,31,0.0,3.0,71,0.00,,,0.00,,2013-03-01 19:52:00,
2013-03-01 15:01:00,37.0,28.0,29.57,ENE,65,1.0,3.0,71,0.00,,,0.00,,2013-03-01 20:01:00,
2013-03-01 15:11:00,37.0,28.0,29.57,ENE,65,1.0,3.0,71,0.00,,,0.00,,2013-03-01 20:11:00,
2013-03-01 15:21:00,37.0,28.0,29.57,North,5,2.0,5.0,70,0.00,,,0.00,,2013-03-01 20:21:00,
2013-03-01 15:32:00,38.0,29.0,29.57,NNE,22,1.0,5.0,70,0.00,,,0.00,,2013-03-01 20:32:00,
2013-03-01 15:42:00,38.0,29.0,29.57,NNE,22,1.0,5.0,70,0.00,,,0.00,,2013-03-01 20:42:00,
2013-03-01 15:52:00,38.0,28.0,29.57,North,352,2.0,3.0,68,0.00,,,0.00,,2013-03-01 20:52:00,
2013-03-01 16:01:00,38.0,28.0,29.57,NNE,17,2.0,3.0,68,0.00,,,0.00,,2013-03-01 21:01:00,
2013-03-01 16:11:00,38.0,29.0,29.57,NNE,17,2.0,3.0,69,0.00,,,0.00,,2013-03-01 21:11:00,
2013-03-01 16:21:00,38.0,29.0,29.57,NNE,17,2.0,3.0,69,0.00,,,0.00,,2013-03-01 21:21:00,
2013-03-01 16:32:00,38.0,29.0,29.57,NNE,23,1.0,5.0,69,0.00,,,0.00,,2013-03-01 21:32:00,
2013-03-01 16:42:00,37.0,28.0,29.57,NW,312,1.0,3.0,70,0.00,,,0.00,,2013-03-01 21:42:00,
2013-03-01 16:52:00,37.0,28.0,29.57,NW,312,1.0,3.0,70,0.00,,,0.00,,2013-03-01 21:52:00,
2013-03-01 17:01:00,37.0,28.0,29.57,WNW,289,2.0,5.0,71,0.00,,,0.00,,2013-03-01 22:01:00,
2013-03-01 17:11:00,36.0,28.0,29.57,North,10,0.0,2.0,72,0.00,,,0.00,,2013-03-01 22:11:00,
2013-03-01 17:22:00,36.0,28.0,29.57,North,10,0.0,2.0,72,0.00,,,0.00,,2013-03-01 22:22:00,
2013-03-01 17:32:00,36.0,28.0,29.57,WNW,300,1.0,3.0,73,0.00,,,0.00,,2013-03-01 22:32:00,
2013-03-01 17:42:00,36.0,28.0,29.57,WNW,300,1.0,3.0,73,0.00,,,0.00,,2013-03-01 22:42:00,
2013-03-01 17:52:00,35.0,28.0,29.57,NNE,25,1.0,3.0,75,0.00,,,0.00,,2013-03-01 22:52:00,
2013-03-01 18:01:00,35.0,28.0,29.57,North,7,2.0,3.0,76,0.00,,,0.00,,2013-03-01 23:01:00,
2013-03-01 18:11:00,35.0,28.0,29.57,North,7,2.0,3.0,76,0.00,,,0.00,,2013-03-01 23:11:00,
2013-03-01 18:21:00,34.0,28.0,29.60,NW,321,0.0,2.0,77,0.00,,,0.00,,2013-03-01 23:21:00,
2013-03-01 18:32:00,34.0,28.0,29.60,North,358,1.0,3.0,77,0.00,,,0.00,,2013-03-01 23:32:00,
2013-03-01 18:41:00,34.0,28.0,29.60,North,358,1.0,3.0,77,0.00,,,0.00,,2013-03-01 23:41:00,
2013-03-01 18:52:00,34.0,28.0,29.60,NNW,338,0.0,2.0,78,0.00,,,0.00,,2013-03-01 23:52:00,
2013-03-01 19:02:00,34.0,28.0,29.60,NNE,22,0.0,1.0,79,0.00,,,0.00,,2013-03-02 00:02:00,
2013-03-01 19:12:00,34.0,28.0,29.60,NNE,22,0.0,1.0,79,0.00,,,0.00,,2013-03-02 00:12:00,
2013-03-01 19:22:00,33.0,28.0,29.60,NNW,338,0.0,1.0,81,0.00,,,0.00,,2013-03-02 00:22:00,
2013-03-01 19:32:00,33.0,28.0,29.60,NNW,338,0.0,0.0,83,0.00,,,0.00,,2013-03-02 00:32:00,
2013-03-01 19:42:00,33.0,29.0,29.60,NW,315,0.0,0.0,84,0.00,,,0.00,,2013-03-02 00:42:00,
2013-03-01 19:52:00,33.0,29.0,29.60,NW,315,0.0,0.0,84,0.00,,,0.00,,2013-03-02 00:52:00,
2013-03-01 20:01:00,32.0,28.0,29.60,NW,315,0.0,0.0,85,0.00,,,0.00,,2013-03-02 01:01:00,
2013-03-01 20:11:00,32.0,28.0,29.60,NW,315,0.0,0.0,85,0.00,,,0.00,,2013-03-02 01:11:00,
2013-03-01 20:21:00,32.0,29.0,29.60,NW,315,0.0,0.0,87,0.00,,,0.00,,2013-03-02 01:21:00,
2013-03-01 20:32:00,32.0,29.0,29.60,NW,315,0.0,0.0,88,0.00,,,0.00,,2013-03-02 01:32:00,
2013-03-01 20:41:00,32.0,29.0,29.60,NW,315,0.0,0.0,88,0.00,,,0.00,,2013-03-02 01:41:00,
2013-03-01 20:52:00,32.0,29.0,29.60,NW,315,1.0,3.0,89,0.00,,,0.00,,2013-03-02 01:52:00,
2013-03-01 21:01:00,32.0,29.0,29.60,WNW,292,0.0,0.0,90,0.00,,,0.00,,2013-03-02 02:01:00,
2013-03-01 21:11:00,32.0,29.0,29.60,WNW,292,0.0,0.0,90,0.00,,,0.00,,2013-03-02 02:11:00,
2013-03-01 21:22:00,32.0,30.0,29.60,NNE,22,0.0,0.0,93,0.00,,,0.00,,2013-03-02 02:22:00,
2013-03-01 21:32:00,32.0,30.0,29.60,NW,315,0.0,0.0,93,0.00,,,0.00,,2013-03-02 02:32:00,
2013-03-01 21:42:00,32.0,30.0,29.60,NW,315,0.0,0.0,93,0.00,,,0.00,,2013-03-02 02:42:00,
2013-03-01 21:52:00,32.0,30.0,29.63,NE,43,0.0,0.0,94,0.00,,,0.00,,2013-03-02 02:52:00,
2013-03-01 22:02:00,32.0,31.0,29.63,NNW,346,1.0,2.0,95,0.00,,,0.00,,2013-03-02 03:02:00,
2013-03-01 22:11:00,32.0,31.0,29.63,NNW,346,1.0,2.0,95,0.00,,,0.00,,2013-03-02 03:11:00,
2013-03-01 22:22:00,32.0,31.0,29.57,North,3,0.0,1.0,97,0.00,,,0.00,,2013-03-02 03:22:00,
2013-03-01 22:32:00,32.0,32.0,29.57,NW,321,1.0,5.0,98,0.00,,,0.00,,2013-03-02 03:32:00,
2013-03-01 22:42:00,32.0,32.0,29.57,NW,321,1.0,5.0,98,0.00,,,0.00,,2013-03-02 03:42:00,
2013-03-01 22:52:00,32.0,32.0,29.60,North,352,0.0,2.0,99,0.00,,,0.00,,2013-03-02 03:52:00,
2013-03-01 23:01:00,32.0,32.0,29.60,WNW,290,0.0,1.0,100,0.00,,,0.00,,2013-03-02 04:01:00,
2013-03-01 23:11:00,31.0,31.0,29.60,WSW,248,0.0,1.0,100,0.00,,,0.00,,2013-03-02 04:11:00,
2013-03-01 23:22:00,31.0,31.0,29.60,WSW,248,0.0,1.0,100,0.00,,,0.00,,2013-03-02 04:22:00,
2013-03-01 23:32:00,31.0,31.0,29.60,NW,315,1.0,1.0,100,0.00,,,0.00,,2013-03-02 04:32:00,
2013-03-01 23:42:00,31.0,31.0,29.60,NW,315,1.0,1.0,100,0.00,,,0.00,,2013-03-02 04:42:00,
2013-03-01 23:52:00,31.0,31.0,29.60,WNW,295,0.0,1.0,100,0.00,,,0.00,,2013-03-02 04:52:00,